Regional Weather Roundup
Issued by NWS Albany, NY

Home | Current Version | Previous Version | Graphics & Text | Print | Product List | Glossary Off
Versions: 1 2 3 4 5 6 7 8 9 10 11 12 13 14 15 16 17 18 19 20 21 22 23 24 25 26 27 28 29 30 31 32 33 34 35 36 37 38 39 40 41 42 43 44 45 46 47 48 49 50

651
ASUS41 KALY 270710
RWRALY

NEW YORK STATE HOURLY WEATHER ROUNDUP
NATIONAL WEATHER SERVICE ALBANY NY
300 AM EDT WED JUL 27 2016

NOTE: "FAIR" INDICATES FEW OR NO CLOUDS BELOW 12,000 FEET WITH NO
SIGNIFICANT WEATHER AND/OR NO OBSTRUCTIONS TO VISIBILITY.

NYZ032-033-038>043-046>054-057>066-NYZ062>081-082-084-270800-
EAST


CITY           SKY/WX    TMP DP  RH WIND       PRES   REMARKS
ALBANY         PTCLDY    65  58  78 CALM      29.95S
GLENS FALLS    CLEAR     64  60  87 N3        29.93F
POUGHKEEPSIE   CLEAR     65  62  90 CALM      29.94S
MONTGOMERY     CLEAR     62  61  96 CALM      29.96S
WHITE PLAINS   CLEAR     70  62  76 NW7       29.94S
ISLIP          PTCLDY    72  64  76 N6        29.91F
NEW YORK CITY  MOCLDY    79  64  60 NE6       29.92S
CENTRAL PARK   PTCLDY    77  61  57 CALM      29.96S
$$

NYZ005>009-017-018-044>046-055-056-270800-
CENTRAL


CITY           SKY/WX    TMP DP  RH WIND       PRES   REMARKS
FULTON         CLEAR     62  58  86 CALM      29.96S
SYRACUSE       PTCLDY    64  60  87 CALM      29.96S
ROME           CLEAR     59  59 100 CALM      29.98S
ELMIRA         CLEAR     58  56  93 W3        30.00S
BINGHAMTON     CLEAR     66  60  81 W3        30.01S
MONTICELLO     CLEAR     61  57  88 CALM      30.02S
$$

NYZ026>034-041>043-087-270800-
NORTH


CITY           SKY/WX    TMP DP  RH WIND       PRES   REMARKS
WATERTOWN      CLEAR     67  61  81 S6        29.93S
FORT DRUM      NOT AVBL
MASSENA        CLEAR     65  60  84 SW5       29.91S
SARANAC LAKE   CLEAR     51  49  92 CALM      29.97S FOG
PLATTSBURGH    CLEAR     63  61  93 S3        29.90R
$$

NYZ001>004-010>016-019>021-085-270800-
WEST


CITY           SKY/WX    TMP DP  RH WIND       PRES   REMARKS
NIAGARA FALLS  CLEAR     69  64  84 S5        29.97S
BUFFALO        CLEAR     68  64  87 SW7       29.98S
DUNKIRK        CLEAR     66  60  81 SW6       30.00S
JAMESTOWN      CLEAR     61  57  88 CALM      30.04F
WELLSVILLE     CLEAR     61  58  90 CALM      30.07S
ROCHESTER      PTCLDY    66  62  87 SW6       29.97F
PENN YAN       CLEAR     66  62  87 SW6       30.00S
$$

             KEY
       WCI = WIND CHILL INDEX
       VSB = VISIBILITY
       HX  = HEAT INDEX
$$




USA.gov is the U.S. government's official web portal to all federal, state and local government web resources and services.